Location: La Sioule Rivi�re
(46.3664°N, 3.3197°E)
Time: 13:01:47
(UTC+00:00)

Cosmos 1346 Rocket - Pass Details

Date: 29 October 2020
Orbit: 535 x 543 km, 81.2° (Epoch: 23 November)

Event Time Altitude Azimuth Distance (km) Brightness Sun altitude
Rises 17:28:43 0° 357° (N) 2,715 6.3 -9.6°
Reaches altitude 10° 17:31:04 10° 7° (N) 1,819 5.3 -10.0°
Maximum altitude 17:34:41 32° 72° (ENE) 943 3.5 -10.7°
Drops below altitude 10° 17:38:18 10° 137° (SE) 1,807 5.1 -11.3°
Sets 17:40:37 0° 147° (SSE) 2,694 6.1 -11.7°
